(137333) = 1999 TN63 = 2001 FF96

Discovered at Kitt Peak on 1999-10-07 by Spacewatch.

Orbit

Orbit type: Main Belt

Note: WebGL enabled browser required.

epoch2024-03-31.0
epoch JD2460400.5
perihelion date2023-03-13.97846
perihelion JD2460017.47846
argument of perihelion (°)143.33983
ascending node (°)52.71382
inclination (°)7.47321
eccentricity0.0796390
perihelion distance (AU)2.1810429
Tisserand w.r.t. Jupiter3.5
ΔV w.r.t. Earth (km/sec)9.5
semimajor axis (AU)2.3697688
mean anomaly (°)103.48278
mean daily motion (°/day)0.27017480
aphelion distance (AU)2.558
period (years)3.65
P-vector [x]-0.95696813
P-vector [y]-0.28742662
P-vector [z]-0.03997420
Q-vector [x]0.27111589
Q-vector [y]-0.83641388
Q-vector [z]-0.47634861
absolute magnitude16.35
phase slope0.15
uncertainty0
referenceMPEC 2024-C115
observations used747
oppositions14
arc length (days)8676
first opposition used1999
last opposition used2023
residual rms (arc-secs)0.78
perturbers coarse indicatorM-v
perturbers precise indicator003Ek
first observation date used1999-10-07.0
last observation date used2023-07-09.0
computer nameMPCLINUX
JD of orbit computation2456612.665453
perihelion JD uncertainty (days)9.5208E-05
argument of perihelion uncertainty (°)4.9539E-05
ascending node uncertainty (°)4.2792E-05
inclination uncertainty (°)6.5854E-06
eccentricity uncertainty 7.8044E-08
perihelion distance uncertainty (AU)1.8258E-07
Minimum Orbit Intersection Distances (in AU)
for orbit epoch: 2460200.5, reference: E2024-CB5
Mercury1.74867
Venus1.4604
Earth1.18199
Mars0.55677
Jupiter2.39982
Saturn6.60904
Uranus16.2501
Neptune27.2838

Observations

758 total observations over interval: 1999 10 07.44937 – 2023 07 09.191274
These data are available for download (format description).

Date (UT) J2000 RA J2000 Dec Magn Location Ref
1999 10 07.44937 03 40 13.73 +17 13 24.9 20.4 V 691 – Steward Observatory, Kitt Peak-Spacewatch MPS 13718
1999 10 07.47144 03 40 13.20 +17 13 24.2 20.8 V 691 – Steward Observatory, Kitt Peak-Spacewatch MPS 13718
1999 10 07.49340 03 40 12.60 +17 13 25.1 20.5 V 691 – Steward Observatory, Kitt Peak-Spacewatch MPS 13718
1999 10 11.46430 03 38 21.81 +17 15 29.0 20.1 V 691 – Steward Observatory, Kitt Peak-Spacewatch MPS 13718
1999 10 11.49362 03 38 20.83 +17 15 29.5 19.9 V 691 – Steward Observatory, Kitt Peak-Spacewatch MPS 13718
1999 10 11.51559 03 38 20.10 +17 15 29.7 19.8 V 691 – Steward Observatory, Kitt Peak-Spacewatch MPS 13718
1999 10 16.39479 03 35 25.06 +17 16 34.6 21.1 V 691 – Steward Observatory, Kitt Peak-Spacewatch MPS 19111
1999 10 16.42361 03 35 23.86 +17 16 34.9 21.1 V 691 – Steward Observatory, Kitt Peak-Spacewatch MPS 19111
1999 10 16.45081 03 35 22.74 +17 16 35.0 21.4 V 691 – Steward Observatory, Kitt Peak-Spacewatch MPS 19111
1999 11 12.30541 03 09 48.11 +16 57 10.5 19.3   704 – Lincoln Laboratory ETS, New Mexico MPS 15268
1999 11 12.31989 03 09 47.10 +16 57 09.1 19.4   704 – Lincoln Laboratory ETS, New Mexico MPS 15268
1999 11 12.33419 03 09 46.06 +16 57 07.6 19.9   704 – Lincoln Laboratory ETS, New Mexico MPS 15268
1999 11 12.34850 03 09 45.09 +16 57 06.9 19.9   704 – Lincoln Laboratory ETS, New Mexico MPS 15268
1999 11 13.42058 03 08 33.51 +16 55 44.1 19.6 V 691 – Steward Observatory, Kitt Peak-Spacewatch MPS 15268
1999 11 13.44780 03 08 31.66 +16 55 41.8 19.8 V 691 – Steward Observatory, Kitt Peak-Spacewatch MPS 15268
1999 11 13.47648 03 08 29.70 +16 55 39.4 19.9 V 691 – Steward Observatory, Kitt Peak-Spacewatch MPS 15268
2001 03 04.39485 13 13 14.25 +02 57 10.1 19.1   704 – Lincoln Laboratory ETS, New Mexico MPS 28443
2001 03 04.40912 13 13 13.85 +02 57 15.0 19.2   704 – Lincoln Laboratory ETS, New Mexico MPS 28443
2001 03 04.42339 13 13 13.37 +02 57 16.8 19.5   704 – Lincoln Laboratory ETS, New Mexico MPS 28443
2001 03 04.43793 13 13 13.02 +02 57 19.8 19.6   704 – Lincoln Laboratory ETS, New Mexico MPS 28443
2001 03 04.45222 13 13 12.49 +02 57 23.7 19.1   704 – Lincoln Laboratory ETS, New Mexico MPS 28443
2001 03 16.30678 13 05 37.85 +03 40 56.8 18.8   704 – Lincoln Laboratory ETS, New Mexico MPS 28443
2001 03 16.31988 13 05 37.17 +03 41 00.1 19.5   704 – Lincoln Laboratory ETS, New Mexico MPS 28443
2001 03 16.33283 13 05 36.56 +03 41 02.1 19.3   704 – Lincoln Laboratory ETS, New Mexico MPS 28443
2001 03 16.35884 13 05 35.21 +03 41 08.3 19.3   704 – Lincoln Laboratory ETS, New Mexico MPS 28443
2001 03 18.53778 13 03 47.72 +03 49 34.2 19.5   608 – Haleakala-AMOS MPS 28443
2001 03 18.54878 13 03 47.16 +03 49 36.5 19.5   608 – Haleakala-AMOS MPS 28443
2001 03 18.55916 13 03 46.59 +03 49 38.9 19.6   608 – Haleakala-AMOS MPS 28443
2001 03 19.25240 13 03 11.62 +03 52 16.9 18.5 R 699 – Lowell Observatory-LONEOS MPS 28443
2001 03 19.28902 13 03 09.59 +03 52 25.6   699 – Lowell Observatory-LONEOS MPS 28443
2001 03 19.32572 13 03 07.64 +03 52 34.4   699 – Lowell Observatory-LONEOS MPS 28443
2001 03 19.343510 13 03 06.624 +03 52 37.40 18.99 V 645 – Apache Point-Sloan Digital Sky Survey MPS 79602
2001 03 19.346982 13 03 06.435 +03 52 38.16 19.86   645 – Apache Point-Sloan Digital Sky Survey MPS 79602
2001 03 19.36253 13 03 05.76 +03 52 41.8   699 – Lowell Observatory-LONEOS MPS 28443
2001 03 26.30408 12 56 42.19 +04 18 09.9 18.6   704 – Lincoln Laboratory ETS, New Mexico MPS 28443
2001 03 26.31655 12 56 41.46 +04 18 12.4 18.7   704 – Lincoln Laboratory ETS, New Mexico MPS 28443
2001 03 26.32904 12 56 40.66 +04 18 15.3 19.1   704 – Lincoln Laboratory ETS, New Mexico MPS 28443
2001 03 26.34148 12 56 39.91 +04 18 17.9 18.7   704 – Lincoln Laboratory ETS, New Mexico MPS 28443
2001 03 26.35395 12 56 39.16 +04 18 19.7 18.9   704 – Lincoln Laboratory ETS, New Mexico MPS 28443
2001 03 27.54251 12 55 29.42 +04 22 24.3 19.5   608 – Haleakala-AMOS MPS 28443
2001 03 27.55273 12 55 28.80 +04 22 26.5 19.5   608 – Haleakala-AMOS MPS 28443
2001 03 27.56365 12 55 28.13 +04 22 28.3 19.3   608 – Haleakala-AMOS MPS 28443
2001 03 30.33216 12 52 43.47 +04 31 16.6 18.5   704 – Lincoln Laboratory ETS, New Mexico MPS 28443
2001 03 30.34700 12 52 42.62 +04 31 19.9 18.5   704 – Lincoln Laboratory ETS, New Mexico MPS 28443
2001 03 30.36182 12 52 41.65 +04 31 23.3 18.8   704 – Lincoln Laboratory ETS, New Mexico MPS 28443
2001 03 30.37705 12 52 40.81 +04 31 24.3 18.5   704 – Lincoln Laboratory ETS, New Mexico MPS 28443
2001 04 16.185290 12 36 19.898 +05 01 18.49 19.05 V 645 – Apache Point-Sloan Digital Sky Survey MPS 79602
2001 04 16.188762 12 36 19.706 +05 01 18.57 19.94   645 – Apache Point-Sloan Digital Sky Survey MPS 79602
2001 04 23.14023 12 30 41.34 +04 58 24.3 18.6 R 699 – Lowell Observatory-LONEOS MPS 29943
2001 04 23.17767 12 30 39.58 +04 58 22.8   699 – Lowell Observatory-LONEOS MPS 29943
2001 04 23.21524 12 30 37.85 +04 58 20.2   699 – Lowell Observatory-LONEOS MPS 29943
2001 04 23.25312 12 30 36.18 +04 58 17.6   699 – Lowell Observatory-LONEOS MPS 29943
2001 04 24.14357 12 29 58.00 +04 57 10.8 18.6 R 699 – Lowell Observatory-LONEOS MPS 29943
2001 04 24.18093 12 29 56.25 +04 57 08.7   699 – Lowell Observatory-LONEOS MPS 29943
2001 04 24.21849 12 29 54.64 +04 57 04.7   699 – Lowell Observatory-LONEOS MPS 29943
2001 04 24.25614 12 29 52.87 +04 57 02.0   699 – Lowell Observatory-LONEOS MPS 29943
2003 12 17.28109 06 14 07.72 +30 56 22.1 20.4   704 – Lincoln Laboratory ETS, New Mexico MPS 93576
2003 12 17.29374 06 14 06.77 +30 56 24.4 20.3   704 – Lincoln Laboratory ETS, New Mexico MPS 93576
2003 12 17.31274 06 14 05.38 +30 56 28.6 20.2   704 – Lincoln Laboratory ETS, New Mexico MPS 93576
2003 12 17.32594 06 14 04.44 +30 56 32.5 19.6   704 – Lincoln Laboratory ETS, New Mexico MPS 93576
2003 12 18.26844 06 12 57.56 +31 00 02.1 19.3   704 – Lincoln Laboratory ETS, New Mexico MPS 93576
2003 12 18.26862 06 12 57.45 +31 00 02.1 19.5   704 – Lincoln Laboratory ETS, New Mexico MPS 93576
2003 12 18.28378 06 12 56.36 +31 00 04.5 20.1   704 – Lincoln Laboratory ETS, New Mexico MPS 93576
2003 12 18.28397 06 12 56.36 +31 00 05.3 20.1   704 – Lincoln Laboratory ETS, New Mexico MPS 93576
2003 12 18.29722 06 12 55.31 +31 00 07.5 20.0   704 – Lincoln Laboratory ETS, New Mexico MPS 93576
2003 12 18.29749 06 12 55.35 +31 00 08.4 20.1   704 – Lincoln Laboratory ETS, New Mexico MPS 93576
2003 12 18.31019 06 12 54.42 +31 00 10.4 20.3   704 – Lincoln Laboratory ETS, New Mexico MPS 93576
2003 12 18.31038 06 12 54.39 +31 00 10.7 20.2   704 – Lincoln Laboratory ETS, New Mexico MPS 93576
2006 09 17.38322 01 31 25.94 +01 05 04.7 20.5   705 – Apache Point MPS 195227
2006 09 17.38405 01 31 25.91 +01 05 04.5 19.9 V 705 – Apache Point MPS 195227
2006 09 18.30870 01 30 46.62 +01 01 39.3 20.0 V 703 – Catalina Sky Survey MPS 179044
2006 09 18.31515 01 30 46.29 +01 01 36.9 19.8 V 703 – Catalina Sky Survey MPS 179044
2006 09 18.32160 01 30 46.00 +01 01 35.3 20.4 V 703 – Catalina Sky Survey MPS 179044
2006 09 18.32807 01 30 45.75 +01 01 34.7 20.4 V 703 – Catalina Sky Survey MPS 179044
2006 09 18.36488 01 30 44.16 +01 01 26.3 20.8   705 – Apache Point MPS 195227
2006 09 18.36571 01 30 44.12 +01 01 26.2 20.0 V 705 – Apache Point MPS 195227
2006 10 02.30157 01 18 49.82 +00 06 32.5 19.8 V G96 – Mt. Lemmon Survey MPS 182411
2006 10 02.30716 01 18 49.50 +00 06 31.4 19.5 V G96 – Mt. Lemmon Survey MPS 182411
2006 10 02.31274 01 18 49.17 +00 06 30.1 19.7 V G96 – Mt. Lemmon Survey MPS 182411
2006 10 02.31837 01 18 48.85 +00 06 28.8 19.6 V G96 – Mt. Lemmon Survey MPS 182411
2006 10 02.35071 01 18 46.90 +00 06 21.3 19.3 V G96 – Mt. Lemmon Survey MPS 182411
2006 10 02.35792 01 18 46.47 +00 06 19.6 19.1 V G96 – Mt. Lemmon Survey MPS 182411
2006 10 02.36507 01 18 46.04 +00 06 18.3 19.3 V G96 – Mt. Lemmon Survey MPS 182411
2006 10 02.37218 01 18 45.64 +00 06 16.3 19.6 V G96 – Mt. Lemmon Survey MPS 182411
2006 10 03.32295 01 17 50.78 +00 02 31.9 19.7 V G96 – Mt. Lemmon Survey MPS 182411
2006 10 03.32817 01 17 50.46 +00 02 30.7 19.7 V G96 – Mt. Lemmon Survey MPS 182411
2006 10 03.33339 01 17 50.13 +00 02 29.5 19.4 V G96 – Mt. Lemmon Survey MPS 182411
